Victoria, TX

2:10 PM CDT on October 23, 2019 (GMT -0500)
Victoria Regional

Weather History for KVCT - August, 2019

Change the Weather History Date:

Wednesday, August 7, 2019

  Actual Average Record
Temperature  
Mean Temperature 87 °F 85 °F  
Max Temperature 99 °F 95 °F 103 °F (1953)
Min Temperature 75 °F 74 °F 70 °F (1914)
Degree Days  
Heating Degree Days 0 0  
Month to date heating degree days 0 0  
Since 1 June heating degree days 0 0  
Since 1 July heating degree days 0 0  
Cooling Degree Days 22 20  
Month to date cooling degree days 149 140  
Year to date cooling degree days 2102 1893  
Since 1 June cooling degree days 1334 1234  
Growing Degree Days 37 (Base 50)    
Moisture  
Dew Point 75 °F    
Average Humidity 70    
Maximum Humidity 94    
Minimum Humidity 45    
Precipitation  
Precipitation 0.00 in 0.08 in 2.85 in (1964)
Month to date precipitation 0.10 0.57  
Year to date precipitation 14.74 24.59  
Snow  
Snow 0.00 in 0.00 in 0.00 in (2002)
Month to date snowfall 0.0 0.0  
Since 1 June snowfall 0.0 0.0  
Since 1 July snowfall 0.0 0.0  
Snow Depth 0.00 in    
Sea Level Pressure  
Sea Level Pressure 29.92 in    
Wind  
Wind Speed 11 mph (SSE)    
Max Wind Speed 22 mph    
Max Gust Speed 28 mph    
Visibility 9 miles    
Events      
T = Trace of Precipitation, MM = Missing Value Source: NWS Daily Summary

Daily Weather History Graph

Daily Weather History Graph

Search for Another Location

Airport or City:

Astronomy

Aug. 07, 2019 Rise Set
Actual Time 6:52 AM CDT 8:14 PM CDT
Civil Twilight 6:26 AM CDT 8:39 PM CDT
Nautical Twilight 5:56 AM CDT 9:09 PM CDT
Astronomical Twilight 5:25 AM CDT 9:40 PM CDT
Moon 1:49 PM CDT (8/7) 12:33 AM CDT (8/7)
Length of Visible Light 14h 12m
Length of Day
13h 22m
Waxing Crescent, 50% of the Moon is Illuminated
Aug 7
Waxing Crescent
Aug 7
First Quarter
Aug 15
Full
Aug 23
Last Quarter
Aug 30
New

Hourly Weather History & Observations

Time (CDT) Temp. Heat Index Dew Point Humidity Pressure Visibility Wind Dir Wind Speed Gust Speed Precip Events Conditions
12:51 AM 80.1 °F 85.8 °F 77.0 °F 90% 29.94 in 8.0 mi South 5.8 mph - N/A   Clear
1:51 AM 81.0 °F 87.9 °F 77.0 °F 88% 29.93 in 9.0 mi South 8.1 mph - N/A   Clear
2:51 AM 80.1 °F 85.4 °F 75.9 °F 87% 29.93 in 10.0 mi South 8.1 mph - N/A   Clear
3:51 AM 79.0 °F - 75.9 °F 90% 29.93 in 10.0 mi South 4.6 mph - N/A   Clear
5:51 AM 75.9 °F - 73.0 °F 91% 29.93 in 6.0 mi South 4.6 mph - N/A   Clear
6:51 AM 77.0 °F - 73.9 °F 90% 29.93 in 8.0 mi SSE 3.5 mph - N/A   Partly Cloudy
7:51 AM 78.1 °F - 75.9 °F 93% 29.94 in 7.0 mi East 3.5 mph - N/A   Clear
8:51 AM 84.9 °F 95.3 °F 77.0 °F 77% 29.95 in 10.0 mi South 5.8 mph - N/A   Clear
9:41 AM 89.1 °F 100.2 °F 75.9 °F 65% 29.96 in 10.0 mi South 13.8 mph - N/A   Mostly Cloudy
9:51 AM 90.0 °F 101.3 °F 75.9 °F 63% 29.95 in 10.0 mi South 13.8 mph - N/A   Mostly Cloudy
10:07 AM 90.0 °F 100.2 °F 75.0 °F 61% 29.96 in 10.0 mi South 11.5 mph - N/A   Scattered Clouds
10:51 AM 93.0 °F 103.2 °F 73.9 °F 54% 29.96 in 10.0 mi South 12.7 mph 23.0 mph N/A   Scattered Clouds
11:51 AM 97.0 °F 107.0 °F 73.0 °F 46% 29.95 in 10.0 mi South 13.8 mph 23.0 mph N/A   Mostly Cloudy
12:51 PM 96.1 °F 104.9 °F 72.0 °F 46% 29.94 in 10.0 mi South 11.5 mph - N/A   Scattered Clouds
1:51 PM 98.1 °F 109.5 °F 73.9 °F 46% 29.93 in 10.0 mi SSE 13.8 mph 24.2 mph N/A   Partly Cloudy
2:51 PM 98.1 °F 108.0 °F 73.0 °F 44% 29.90 in 10.0 mi SSE 20.7 mph 25.3 mph N/A   Partly Cloudy
3:51 PM 98.1 °F 108.0 °F 73.0 °F 44% 29.89 in 10.0 mi South 18.4 mph - N/A   Scattered Clouds
4:51 PM 96.1 °F 105.6 °F 73.0 °F 47% 29.88 in 10.0 mi SSE 15.0 mph - N/A   Partly Cloudy
5:51 PM 95.0 °F 103.2 °F 72.0 °F 47% 29.87 in 10.0 mi South 18.4 mph - N/A   Clear
6:51 PM 91.9 °F 101.3 °F 73.9 °F 55% 29.86 in 10.0 mi South 16.1 mph - N/A   Partly Cloudy
7:51 PM 88.0 °F 97.5 °F 75.0 °F 65% 29.87 in 10.0 mi South 13.8 mph - N/A   Partly Cloudy
9:51 PM 82.9 °F 90.8 °F 75.9 °F 79% 29.88 in 10.0 mi SE 8.1 mph - N/A   Clear
10:51 PM 82.0 °F 90.2 °F 77.0 °F 85% 29.90 in 10.0 mi SE 10.4 mph - N/A   Clear
11:51 PM 82.0 °F 90.2 °F 77.0 °F 85% 29.92 in 10.0 mi SSE 11.5 mph - N/A   Clear